Weather History for Dublin, Ireland

Change the Weather History Date:

Friday, October 15, 2010

  Actual Average Record
Temperature  
Mean Temperature 50 °F -  
Max Temperature 57 °F 54 °F 60 °F (2005)
Min Temperature 42 °F 43 °F 35 °F (2013)
Degree Days  
Heating Degree Days 16    
Moisture  
Dew Point 46 °F    
Average Humidity 85    
Maximum Humidity 100    
Minimum Humidity 65    
Precipitation  
Precipitation 0.00 in 0.09 in - ()
Sea Level Pressure  
Sea Level Pressure 30.19 in    
Wind  
Wind Speed 8 mph ()    
Max Wind Speed 17 mph    
Max Gust Speed -    
Visibility 6.3 miles    
Events      
Averages and records for this station are not official NWS values.
T = Trace of Precipitation, MM = Missing Value Source: Averaged Metar Reports

Daily Weather History Graph

Daily Weather History Graph

Search for Another Location

Airport:

Trip Planner

Search our weather history database for the weather conditions in past years. The results will help you decide how hot, cold, wet, or windy it might be!

Date:

Astronomy

Oct. 15, 2010 Rise Set
Actual Time 7:51 AM IST 6:29 PM IST
Civil Twilight 7:16 AM IST 7:04 PM IST
Nautical Twilight 6:36 AM IST 7:44 PM IST
Astronomical Twilight 5:55 AM IST 8:25 PM IST
Moon 3:42 PM IST (10/15) No Moon Set
Length of Visible Light 11h 47m
Length of Day
10h 37m
First Quarter, 55% of the Moon is Illuminated
Oct 15
First Quarter
Oct 23
Full
Oct 30
Last Quarter
Nov 6
New
Nov 13
First Quarter

Hourly Weather History & Observations

Time (IST) Temp. Windchill Dew Point Humidity Pressure Visibility Wind Dir Wind Speed Gust Speed Precip Events Conditions
12:00 AM 48.2 °F - 44.6 °F 87% 30.24 in 6.2 mi NW 5.8 mph - N/A   Mostly Cloudy
12:30 AM 48.2 °F - 44.6 °F 87% 30.24 in 6.2 mi NNW 4.6 mph - N/A   Overcast
1:00 AM 48 °F - 46 °F 88% 30.26 in 8 mi NW 6.7 mph - -   Mist
1:00 AM 48.2 °F - 46.4 °F 93% 30.24 in 6.2 mi NW 5.8 mph - N/A   Overcast
1:30 AM 48.2 °F - 46.4 °F 93% 30.24 in 6.2 mi NW 5.8 mph - N/A   Overcast
2:00 AM 48.2 °F - 46.4 °F 93% 30.24 in 6.2 mi WNW 6.9 mph - N/A   Mostly Cloudy
2:30 AM 48.2 °F - 46.4 °F 93% 30.24 in 6.2 mi NW 5.8 mph - N/A   Mostly Cloudy
3:00 AM 48.2 °F - 46.4 °F 93% 30.24 in 6.2 mi WNW 5.8 mph - N/A   Mostly Cloudy
3:30 AM 48.2 °F - 44.6 °F 87% 30.24 in 6.2 mi NW 8.1 mph - N/A   Mostly Cloudy
4:00 AM 48.2 °F - 44.6 °F 87% 30.24 in 6.2 mi WNW 5.8 mph - N/A   Mostly Cloudy
4:30 AM 48.2 °F - 46.4 °F 93% 30.21 in 6.2 mi NW 6.9 mph - N/A   Mostly Cloudy
5:00 AM 48.2 °F - 46.4 °F 93% 30.21 in 6.2 mi NW 6.9 mph - N/A   Mostly Cloudy
5:30 AM 48.2 °F - 46.4 °F 93% 30.21 in 6.2 mi NW 5.8 mph - N/A   Mostly Cloudy
6:00 AM 46.4 °F 43.5 °F 44.6 °F 93% 30.21 in 6.2 mi NW 5.8 mph - N/A   Mostly Cloudy
6:30 AM 46.4 °F 43.5 °F 44.6 °F 93% 30.21 in 6.2 mi WNW 5.8 mph - N/A   Mostly Cloudy
7:00 AM 44 °F - 42 °F 92% 30.24 in 9 mi WNW 6.7 mph - -   Mist
7:00 AM 42.8 °F 38.6 °F 42.8 °F 100% 30.21 in 6.2 mi WNW 6.9 mph - N/A   Scattered Clouds
7:30 AM 42.8 °F 37.5 °F 42.8 °F 100% 30.21 in 6.2 mi WNW 9.2 mph - N/A   Mostly Cloudy
8:00 AM 42.8 °F 38.0 °F 42.8 °F 100% 30.21 in 6.2 mi WNW 8.1 mph - N/A   Mostly Cloudy
8:30 AM 44.6 °F 40.2 °F 44.6 °F 100% 30.21 in 6.2 mi WNW 8.1 mph - N/A   Mostly Cloudy
9:00 AM 46.4 °F 41.5 °F 44.6 °F 93% 30.21 in 6.2 mi WNW 10.4 mph - N/A   Mostly Cloudy
9:30 AM 48.2 °F - 46.4 °F 93% 30.24 in 6.2 mi WNW 8.1 mph - N/A   Scattered Clouds
10:00 AM 50.0 °F - 46.4 °F 87% 30.21 in 6.2 mi WNW 6.9 mph - N/A   Mostly Cloudy
10:30 AM 50.0 °F - 46.4 °F 87% 30.21 in 6.2 mi West 10.4 mph - N/A   Mostly Cloudy
11:00 AM 51.8 °F - 46.4 °F 82% 30.21 in 6.2 mi West 10.4 mph - N/A   Mostly Cloudy
11:30 AM 51.8 °F - 46.4 °F 82% 30.21 in 6.2 mi West 13.8 mph - N/A   Mostly Cloudy
12:00 PM 53.6 °F - 48.2 °F 82% 30.18 in 6.2 mi West 16.1 mph - N/A   Mostly Cloudy
12:30 PM 55.4 °F - 48.2 °F 77% 30.18 in 6.2 mi WNW 17.3 mph - N/A   Mostly Cloudy
1:00 PM 54 °F - 49 °F 77% 30.20 in 25 mi WNW 13.4 mph - -   Mostly Cloudy
1:00 PM 55.4 °F - 48.2 °F 77% 30.18 in 6.2 mi NW 16.1 mph - N/A   Mostly Cloudy
1:30 PM 55.4 °F - 50.0 °F 82% 30.18 in 6.2 mi WNW 13.8 mph - N/A   Mostly Cloudy
2:00 PM 55.4 °F - 50.0 °F 82% 30.15 in 6.2 mi WNW 15.0 mph - N/A   Mostly Cloudy
2:30 PM 55.4 °F - 50.0 °F 82% 30.15 in 6.2 mi West 13.8 mph - N/A   Mostly Cloudy
3:00 PM 57.2 °F - 51.8 °F 82% 30.15 in 6.2 mi WNW 15.0 mph - N/A   Mostly Cloudy
3:30 PM 57.2 °F - 50.0 °F 77% 30.15 in 6.2 mi NW 16.1 mph - N/A   Mostly Cloudy
4:00 PM 55.4 °F - 50.0 °F 82% 30.12 in 6.2 mi WNW 11.5 mph - N/A   Mostly Cloudy
4:30 PM 55.4 °F - 50.0 °F 82% 30.12 in 6.2 mi NW 10.4 mph - N/A   Mostly Cloudy
5:00 PM 55.4 °F - 48.2 °F 77% 30.12 in 6.2 mi NNW 16.1 mph - N/A   Mostly Cloudy
5:30 PM 55.4 °F - 48.2 °F 77% 30.12 in 6.2 mi NNW 10.4 mph - N/A   Mostly Cloudy
6:00 PM 53.6 °F - 46.4 °F 77% 30.15 in 6.2 mi NNW 12.7 mph - N/A   Mostly Cloudy
6:30 PM 53.6 °F - 44.6 °F 72% 30.15 in 6.2 mi NNW 11.5 mph - N/A   Mostly Cloudy
7:00 PM 53 °F - 45 °F 65% 30.16 in 25 mi NNW 6.7 mph - -   Partly Cloudy
7:00 PM 53.6 °F - 44.6 °F 72% 30.15 in 6.2 mi NNW 6.9 mph - N/A   Mostly Cloudy
7:30 PM 51.8 °F - 44.6 °F 76% 30.15 in 6.2 mi NNW 8.1 mph - N/A   Mostly Cloudy
8:00 PM 51.8 °F - 46.4 °F 82% 30.15 in 6.2 mi NW 8.1 mph - N/A   Mostly Cloudy
8:30 PM 51.8 °F - 44.6 °F 76% 30.15 in 6.2 mi NNW 8.1 mph - N/A   Mostly Cloudy
9:00 PM 51.8 °F - 44.6 °F 76% 30.15 in 6.2 mi NNW 9.2 mph - N/A   Mostly Cloudy
9:30 PM 51.8 °F - 44.6 °F 76% 30.15 in 6.2 mi NW 10.4 mph - N/A   Mostly Cloudy
10:00 PM 51.8 °F - 44.6 °F 76% 30.15 in 6.2 mi NNW 12.7 mph - N/A   Mostly Cloudy
10:30 PM 51.8 °F - 46.4 °F 82% 30.15 in 6.2 mi NNW 13.8 mph - N/A   Mostly Cloudy
11:00 PM 50.0 °F - 44.6 °F 82% 30.15 in 6.2 mi NNW 11.5 mph - N/A   Mostly Cloudy
11:30 PM 48.2 °F - 44.6 °F 87% 30.15 in 6.2 mi NNW 13.8 mph - N/A   Scattered Clouds